User: anonymous   Login
Location: Newark
(45.1381°N, 84.1621°W)
Time: 10:53:30
(UTC+00:00)
Language:

LightSail 2 - Orbit

View from above orbital plane
View from above orbital plane
View from above satellite
View from above satellite

Ground track
Ground track

The orbit data is extracted from the following two-line orbital elements,

1 44420U 19036AC  20022.47873970 +.00003949 +00000-0 +86618-3 0  9991
2 44420 024.0098 315.4691 0010853 308.5967 051.3646 14.54186305028892
Epoch (UTC): 22 January 2020 11:29:23
Eccentricity: 0.0010853
inclination: 24.0098°
perigee height: 704 km
apogee height: 720 km
right ascension of ascending node: 315.4691°
argument of perigee: 308.5967°
revolutions per day: 14.54186305
mean anomaly at epoch: 51.3646°
orbit number at epoch: 2889

The dashed part of the orbit path shows where the satellite is in the earth's shadow,  

DLR